Content
SEND FEEDBACK

Daily
Averages
Monthly
Summary
United States of America

NEWFANE, VERMONT


Home > North America > United States > Vermont
Elevation: 209 meters     Latitude: 42 59N     Longitude: 072 39W

WEATHER
 
SELECT A DAY
Number of Records: 452,630;   Date Range: 1/1/95 - 10/18/14
 
SHARE

PRINT THIS DATA

[ ← Previous Day ]
WEATHER ALMANAC - 25 APRIL, 2014
[ Next Day → ]
[ °F ]   °C
Weather ElementAverageHighLow
Temperature8.9 °C18 °C (4:55 pm)-2 °C (4:35 am)
Dewpoint-5.9 °C-1 °C (8:55 pm)-9 °C (12:15 pm)
Humidity39.5 %74 % (4:55 am)15 % (5:55 pm)
Barometer1013.2 hPa1016.9 hPa (6:55 am)1008.8 hPa (7:15 pm)
Wind Speed5.8 km/h20.4 km/h (9:55 am)
Wind Gust27.8 km/h (9:55 am)
Weather ElementAverage
Visibility16.1 km
Wind DirectionESE (109.4 °)

Weather ElementTotal
Precipitation---
Heating Degree Days10.3 (Base 18.3)
Averaged from 71 records on 25 April, 2014
WEATHER CONDITIONS BREAKOUT
WIND DIRECTION BREAKOUT
WEATHER BY HOUR - 25 APRIL, 2014
[ °F ]   °C
Local TimeTemperatureDewpointHumidityBarometerVisibilityWind DirectionWind SpeedGust SpeedPrecipitationEventsConditions
12:35 AM4 °C-6 °C49 %1014.9 hPa16.1 kmCalmClear
12:55 AM3 °C-6 °C52 %1014.9 hPa16.1 kmCalmClear
1:15 AM2 °C-6 °C56 %1014.9 hPa16.1 kmCalmClear
1:35 AM2 °C-6 °C56 %1014.6 hPa16.1 kmCalmClear
1:55 AM1 °C-6 °C60 %1014.2 hPa16.1 kmCalmClear
2:15 AM1 °C-6 °C60 %1014.2 hPa16.1 kmCalmClear
2:35 AM2 °C-6 °C56 %1014.2 hPa16.1 kmWSW (240°)5.6 km/hClear
2:55 AM1 °C-6 °C60 %1014.2 hPa16.1 kmCalmClear
3:15 AM1 °C-6 °C60 %1014.2 hPa16.1 kmCalmClear
3:35 AM0 °C-6 °C64 %1014.2 hPa16.1 kmCalmClear
3:55 AM-1 °C-6 °C69 %1014.2 hPa16.1 kmCalmClear
4:15 AM-1 °C-6 °C69 %1014.6 hPa16.1 kmCalmClear
4:35 AM-2 °C-7 °C69 %1014.6 hPa16.1 kmSSW (200°)7.4 km/hClear
4:55 AM-2 °C-6 °C74 %1014.9 hPa16.1 kmCalmClear
5:15 AM-2 °C-7 °C69 %1015.2 hPa16.1 kmSSW (200°)7.4 km/hClear
5:35 AM-2 °C-7 °C69 %1015.9 hPa16.1 kmCalmClear
5:55 AM-1 °C-7 °C64 %1015.9 hPa16.1 kmCalmClear
6:15 AM-2 °C-8 °C64 %1016.6 hPa16.1 kmSouth (190°)7.4 km/hClear
6:35 AM-2 °C-7 °C69 %1016.6 hPa16.1 kmSouth (190°)5.6 km/hClear
6:55 AM-1 °C-7 °C64 %1016.9 hPa16.1 kmCalmClear
7:15 AM0 °C-6 °C64 %1016.9 hPa16.1 kmCalmClear
7:35 AM2 °C-5 °C60 %1016.9 hPa16.1 kmCalmClear
7:55 AM2 °C-4 °C65 %1016.9 hPa16.1 kmCalmClear
8:15 AM3 °C-4 °C60 %1016.9 hPa16.1 kmCalmClear
8:35 AM6 °C-5 °C46 %1016.9 hPa16.1 kmCalmClear
8:55 AM7 °C-6 °C39 %1016.9 hPa16.1 kmNNW (340°)9.3 km/hClear
9:15 AM7 °C-5 °C43 %1016.9 hPa16.1 kmNNE (20°)5.6 km/hClear
9:35 AM9 °C-4 °C40 %1016.9 hPa16.1 kmNNW (340°)14.8 km/hClear
9:55 AM9 °C-6 °C34 %1016.6 hPa16.1 kmNorth (10°)20.4 km/h27.8 km/hClear
10:15 AM10 °C-6 °C32 %1016.6 hPa16.1 kmNorth (360°)11.1 km/h25.9 km/hClear
10:35 AM11 °C-6 °C30 %1016.3 hPa16.1 kmNNW (340°)13 km/hClear
10:55 AM11 °C-6 °C30 %1015.9 hPa16.1 kmNorth (360°)13 km/hClear
11:15 AM11 °C-7 °C28 %1015.6 hPa16.1 kmNorth (10°)11.1 km/hClear
11:35 AM12 °C-7 °C26 %1014.9 hPa16.1 kmNorth (350°)11.1 km/hClear
11:55 AM12 °C-8 °C24 %1014.6 hPa16.1 kmNorth (360°)13 km/hClear
12:15 PM12 °C-9 °C22 %1014.6 hPa16.1 kmNW (310°)5.6 km/hClear
12:35 PM12 °C-9 °C22 %1014.2 hPa16.1 kmCalmClear
12:55 PM13 °C-9 °C21 %1013.9 hPa16.1 kmNorth (10°)9.3 km/hClear
1:15 PM13 °C-8 °C23 %1013.5 hPa16.1 kmESE (110°)5.6 km/hClear
1:35 PM14 °C-8 °C21 %1013.2 hPa16.1 kmEast (80°)5.6 km/hClear
1:55 PM14 °C-7 °C23 %1012.9 hPa16.1 kmSSE (160°)9.3 km/hClear
2:15 PM16 °C-7 °C20 %1012.9 hPa16.1 kmCalmClear
2:35 PM16 °C-7 °C20 %1012.5 hPa16.1 kmSouth (170°)5.6 km/hClear
2:55 PM16 °C-8 °C19 %1012.2 hPa16.1 kmSW (220°)11.1 km/hClear
3:15 PM17 °C-8 °C18 %1011.9 hPa16.1 kmSouth (190°)11.1 km/hClear
3:35 PM17 °C-8 °C18 %1011.5 hPa16.1 kmSouth (180°)5.6 km/hClear
3:55 PM17 °C-8 °C18 %1010.8 hPa16.1 kmNE (40°)5.6 km/hClear
4:15 PM17 °C-8 °C18 %1010.8 hPa16.1 kmSouth (190°)14.8 km/hClear
4:35 PM17 °C-8 °C18 %1010.5 hPa16.1 kmCalmClear
4:55 PM18 °C-8 °C16 %1010.2 hPa16.1 kmSSW (200°)14.8 km/hClear
5:15 PM18 °C-8 °C16 %1010.2 hPa16.1 kmSouth (190°)9.3 km/hClear
5:35 PM18 °C-8 °C16 %1009.5 hPa16.1 kmCalmClear
5:55 PM18 °C-9 °C15 %1009.5 hPa16.1 kmCalmClear
6:15 PM17 °C-9 °C16 %1009.1 hPa16.1 kmCalmClear
6:35 PM17 °C-7 °C19 %1009.1 hPa16.1 kmSSE (160°)9.3 km/hClear
6:55 PM16 °C-6 °C22 %1009.1 hPa16.1 kmSSE (160°)9.3 km/hClear
7:15 PM16 °C-4 °C25 %1008.8 hPa16.1 kmSouth (180°)9.3 km/hClear
7:35 PM14 °C-3 °C31 %1008.8 hPa16.1 kmCalmClear
7:55 PM14 °C-4 °C29 %1009.1 hPa16.1 kmSouth (170°)7.4 km/hClear
8:15 PM13 °C-3 °C33 %1009.1 hPa16.1 kmCalmClear
8:35 PM12 °C-2 °C38 %1009.1 hPa16.1 kmCalmPartly Cloudy
8:55 PM12 °C-1 °C41 %1009.5 hPa16.1 kmCalmPartly Cloudy
9:15 PM12 °C-1 °C41 %1009.5 hPa16.1 kmCalmClear
9:35 PM11 °C-1 °C44 %1009.5 hPa16.1 kmSSW (200°)9.3 km/hPartly Cloudy
9:55 PM12 °C-2 °C38 %1009.8 hPa16.1 kmSSW (210°)11.1 km/hMostly Cloudy
10:15 PM12 °C-2 °C38 %1009.8 hPa16.1 kmSouth (180°)11.1 km/hMostly Cloudy
10:35 PM13 °C-3 °C33 %1009.8 hPa16.1 kmSSW (200°)9.3 km/hMostly Cloudy
10:55 PM12 °C-3 °C35 %1009.5 hPa16.1 kmSouth (180°)16.7 km/hOvercast
11:15 PM13 °C-3 °C33 %1009.1 hPa16.1 kmSouth (190°)16.7 km/hOvercast
11:35 PM12 °C-3 °C35 %1009.1 hPa16.1 kmSSW (200°)13 km/hMostly Cloudy
11:55 PM12 °C-3 °C35 %1009.1 hPa16.1 kmSouth (180°)14.8 km/hMostly Cloudy
Hourly data recorded from KEEN, located 0 kilometers away from Newfane, Vermont







STORIES FROM OUR PARTNERS